TimeEST,TemperatureF,Dew PointF,Humidity,Sea Level PressureIn,VisibilityMPH,Wind Direction,Wind SpeedMPH,Gust SpeedMPH,PrecipitationIn,Events,Conditions,WindDirDegrees,DateUTC
12:56 AM,37.0,32.0,82,30.18,10.0,Calm,Calm,-,N/A,,Clear,0,2014-01-13 05:56:00
1:56 AM,35.1,30.9,85,30.18,10.0,Calm,Calm,-,N/A,,Clear,0,2014-01-13 06:56:00
2:56 AM,36.0,33.1,89,30.18,10.0,Calm,Calm,-,N/A,,Clear,0,2014-01-13 07:56:00
3:56 AM,39.9,33.1,77,30.18,10.0,SSW,4.6,-,N/A,,Clear,210,2014-01-13 08:56:00
4:56 AM,39.0,33.1,79,30.19,10.0,SSW,3.5,-,N/A,,Clear,210,2014-01-13 09:56:00
5:56 AM,37.0,32.0,82,30.18,10.0,SW,4.6,-,N/A,,Clear,220,2014-01-13 10:56:00
6:56 AM,35.1,30.9,85,30.17,10.0,SSW,3.5,-,N/A,,Clear,210,2014-01-13 11:56:00
7:56 AM,34.0,30.9,89,30.16,10.0,South,3.5,-,N/A,,Clear,180,2014-01-13 12:56:00
8:56 AM,42.1,36.0,79,30.16,10.0,South,3.5,-,N/A,,Clear,180,2014-01-13 13:56:00
9:56 AM,48.9,36.0,61,30.17,10.0,SW,6.9,-,N/A,,Clear,220,2014-01-13 14:56:00
10:56 AM,54.0,35.1,49,30.18,10.0,SW,11.5,-,N/A,,Clear,220,2014-01-13 15:56:00
11:56 AM,55.9,34.0,44,30.13,10.0,SW,9.2,-,N/A,,Clear,220,2014-01-13 16:56:00
12:56 PM,57.9,34.0,41,30.08,10.0,SW,9.2,-,N/A,,Clear,230,2014-01-13 17:56:00
1:56 PM,60.1,35.1,39,30.05,10.0,SSW,5.8,-,N/A,,Clear,200,2014-01-13 18:56:00
2:56 PM,60.1,35.1,39,30.04,10.0,South,9.2,-,N/A,,Clear,190,2014-01-13 19:56:00
3:56 PM,59.0,35.1,41,30.04,10.0,South,9.2,-,N/A,,Clear,190,2014-01-13 20:56:00
4:56 PM,57.0,35.1,44,30.03,10.0,South,4.6,-,N/A,,Clear,190,2014-01-13 21:56:00
5:56 PM,52.0,37.0,57,30.00,10.0,Calm,Calm,-,N/A,,Clear,0,2014-01-13 22:56:00
6:56 PM,52.0,37.0,57,30.01,10.0,Calm,Calm,-,N/A,,Overcast,0,2014-01-13 23:56:00
7:56 PM,52.0,39.9,63,30.03,10.0,SSW,5.8,-,0.00,Rain,Light Rain,210,2014-01-14 00:56:00
8:56 PM,48.9,45.0,86,30.02,10.0,Calm,Calm,-,0.02,Rain,Light Rain,0,2014-01-14 01:56:00
9:56 PM,46.9,45.0,93,30.00,4.0,Calm,Calm,-,0.06,Rain,Rain,0,2014-01-14 02:56:00
10:56 PM,46.9,45.0,93,29.98,10.0,Calm,Calm,-,0.04,,Overcast,0,2014-01-14 03:56:00
11:56 PM,46.9,45.0,93,29.93,10.0,NE,3.5,-,N/A,,Overcast,40,2014-01-14 04:56:00